Find Starlink 37148

NORAD ID: 68310 Int'l Des: 2026-057 Owner: SPXS Country: US Constellation: starlink operational
LEOCIRCULARRETROGRADE

Live Position

Loading 3D Globe...

About Starlink 37148

Description loading...

Upcoming Passes

Passes for default location (London). Set your location on the main map for personalized predictions.

Altitude History

Loading altitude history...

Two-Line Element Set

1 68310U 26057S 26125.79497863 .00212466 00000-0 13878-2 0 9997
2 68310 97.2861 251.0629 0000171 199.2887 160.8372 15.75229222 7271
Epoch: May 5, 2026 • Age: 7 hours

Current Status

Altitude 352.8 km
Velocity 7.70 km/s
Sub-Earth Point 55.02°N, 167.68°W
Launch Date Mar 20, 2026
Age 0.1 years
Type internet

Technical Details

Classification Payload
Mass 575.00 kg
Dry Mass 530.00 kg
Total Mass 575.00 kg
Length 0.30 m
Diameter 4.10 m
Span 29.00 m
Shape Box + pan
Manufacturer SPXS
Bus Type Starlink V2MO
Phase Status In Orbit
Owner/State SPXS/US

Most Searched